Wilmington, OH

4:21 AM EST on February 21, 2017 (GMT -0500)
Airborne

Weather History for KILN - December, 2013

Change the Weather History Date:

Friday, December 6, 2013

  Actual Average (KFFO) Record (KFFO)
Temperature  
Mean Temperature 29 °F -  
Max Temperature 32 °F 43 °F 71 °F (1998)
Min Temperature 26 °F 28 °F 8 °F (2007)
Degree Days  
Heating Degree Days 36    
Moisture  
Dew Point 27 °F    
Average Humidity 93    
Maximum Humidity 100    
Minimum Humidity 86    
Precipitation  
Precipitation 0.65 in - - ()
Sea Level Pressure  
Sea Level Pressure 30.22 in    
Wind  
Wind Speed 10 mph (North)    
Max Wind Speed 16 mph    
Max Gust Speed 24 mph    
Visibility 3 miles    
Events Fog , Rain , Snow    
Averages and records for this station are not official NWS values.
T = Trace of Precipitation, MM = Missing Value Source: NWS Daily Summary

Daily Weather History Graph

Daily Weather History Graph

Search for Another Location

Airport or City:

Trip Planner

Search our weather history database for the weather conditions in past years. The results will help you decide how hot, cold, wet, or windy it might be!

Date:

Astronomy

Dec. 06, 2013 Rise Set
Actual Time 7:41 AM EST 5:11 PM EST
Civil Twilight 7:11 AM EST 5:41 PM EST
Nautical Twilight 6:37 AM EST 6:14 PM EST
Astronomical Twilight 6:05 AM EST 6:47 PM EST
Moon 10:46 AM EST (12/6) 9:41 PM EST (12/6)
Length of Visible Light 10h 30m
Length of Day
9h 30m
Waxing Crescent, 19% of the Moon is Illuminated
Dec 6
Waxing Crescent
Dec 9
First Quarter
Dec 17
Full
Dec 25
Last Quarter
Jan 1
New

Hourly Weather History & Observations

Time (EST) Temp. Windchill Dew Point Humidity Pressure Visibility Wind Dir Wind Speed Gust Speed Precip Events Conditions
12:54 AM 32.0 °F 24.2 °F 28.9 °F 88% 30.16 in 8.0 mi North 9.2 mph - 0.00 in   Overcast
1:32 AM 32.0 °F 24.2 °F 28.4 °F 87% 30.12 in 5.0 mi NNW 9.2 mph - 0.01 in Rain Light Freezing Rain
1:43 AM 30.2 °F 20.8 °F 28.4 °F 93% 30.15 in 5.0 mi NW 11.5 mph - 0.02 in Rain Light Freezing Rain
1:54 AM 30.9 °F 22.8 °F 28.9 °F 92% 30.18 in 4.0 mi North 9.2 mph - 0.03 in Rain Light Freezing Rain
2:12 AM 30.2 °F 22.6 °F 28.4 °F 93% 30.12 in 6.0 mi NNW 8.1 mph - 0.00 in Rain Light Freezing Rain
2:27 AM 30.2 °F 23.4 °F 28.4 °F 93% 30.13 in 6.0 mi North 6.9 mph - 0.00 in   Overcast
2:36 AM 30.2 °F 21.9 °F 28.4 °F 93% 30.13 in 5.0 mi NNW 9.2 mph - 0.01 in   Overcast
2:54 AM 30.9 °F 25.2 °F 28.9 °F 92% 30.17 in 5.0 mi North 5.8 mph - 0.02 in   Overcast
3:13 AM 30.2 °F 22.6 °F 28.4 °F 93% 30.11 in 5.0 mi North 8.1 mph - 0.01 in Rain Light Freezing Rain
3:54 AM 30.9 °F 22.2 °F 28.9 °F 92% 30.24 in 4.0 mi NNW 10.4 mph - 0.09 in Rain Light Freezing Rain
4:04 AM 30.2 °F 22.6 °F 28.4 °F 93% 30.17 in 5.0 mi NNW 8.1 mph - 0.01 in Rain Light Freezing Rain
4:26 AM 30.2 °F 21.3 °F 28.4 °F 93% 30.17 in 6.0 mi NNW 10.4 mph - 0.03 in Rain Light Freezing Rain
4:38 AM 30.2 °F 23.4 °F 28.4 °F 93% 30.17 in 4.0 mi North 6.9 mph - 0.03 in   Overcast
4:49 AM 30.2 °F 23.4 °F 28.4 °F 93% 30.17 in 4.0 mi North 6.9 mph - 0.04 in   Overcast
4:54 AM 30.0 °F 22.4 °F 28.9 °F 96% 30.24 in 4.0 mi North 8.1 mph - 0.04 in   Overcast
5:39 AM 30.2 °F 22.6 °F 28.4 °F 93% 30.16 in 5.0 mi North 8.1 mph - 0.02 in   Overcast
5:52 AM 30.2 °F 21.3 °F 28.4 °F 93% 30.14 in 7.0 mi North 10.4 mph - 0.02 in   Overcast
5:54 AM 30.0 °F 22.4 °F 28.0 °F 92% 30.22 in 7.0 mi North 8.1 mph - 0.02 in   Overcast
6:54 AM 30.0 °F 22.4 °F 28.0 °F 92% 30.24 in 7.0 mi North 8.1 mph - 0.00 in   Overcast
7:36 AM 30.2 °F 20.8 °F 26.6 °F 86% 30.17 in 6.0 mi North 11.5 mph - 0.01 in Rain Light Freezing Rain
7:54 AM 28.9 °F 19.2 °F 27.0 °F 92% 30.25 in 7.0 mi North 11.5 mph - 0.01 in Rain Light Freezing Rain
8:10 AM 28.4 °F 19.1 °F 26.6 °F 93% 30.20 in 6.0 mi North 10.4 mph - 0.00 in   Overcast
8:54 AM 30.0 °F 22.4 °F 28.0 °F 92% 30.26 in 4.0 mi NNE 8.1 mph - 0.00 in   Overcast
9:54 AM 28.9 °F 19.8 °F 27.0 °F 92% 30.27 in 4.0 mi North 10.4 mph - 0.00 in   Overcast
10:15 AM 30.2 °F 22.6 °F 26.6 °F 86% 30.20 in 4.0 mi North 8.1 mph - 0.00 in Rain Light Freezing Rain
10:54 AM 30.0 °F 21.7 °F 27.0 °F 88% 30.30 in 4.0 mi North 9.2 mph - 0.00 in   Overcast
11:15 AM 30.2 °F 21.9 °F 26.6 °F 86% 30.20 in 5.0 mi North 9.2 mph - 0.00 in   Overcast
11:35 AM 28.4 °F 19.7 °F 26.6 °F 93% 30.21 in 5.0 mi North 9.2 mph - 0.00 in   Overcast
11:54 AM 28.9 °F 18.6 °F 27.0 °F 92% 30.28 in 3.0 mi North 12.7 mph - 0.01 in   Overcast
12:05 PM 28.4 °F 19.1 °F 26.6 °F 93% 30.19 in 3.0 mi North 10.4 mph - 0.00 in Rain Light Freezing Rain
12:38 PM 28.4 °F 16.6 °F 26.6 °F 93% 30.20 in 2.5 mi North 16.1 mph 21.9 mph 0.02 in Snow Light Snow
12:44 PM 28.4 °F 17.0 °F 26.6 °F 93% 30.19 in 1.0 mi North 15.0 mph 21.9 mph 0.03 in Snow Light Snow
12:54 PM 28.9 °F 18.2 °F 26.1 °F 89% 30.25 in 1.0 mi North 13.8 mph - 0.03 in Snow Light Snow
1:21 PM 28.4 °F 17.0 °F 26.6 °F 93% 30.17 in 0.8 mi North 15.0 mph - 0.02 in Snow Light Snow
1:41 PM 28.4 °F 19.1 °F 26.6 °F 93% 30.18 in 1.5 mi North 10.4 mph 19.6 mph 0.05 in Snow Light Snow
1:49 PM 28.4 °F 19.7 °F 26.6 °F 93% 30.16 in 1.8 mi North 9.2 mph - 0.06 in Snow Light Snow
1:54 PM 28.0 °F 17.5 °F 27.0 °F 96% 30.24 in 2.0 mi North 12.7 mph - 0.06 in Snow Light Snow
2:05 PM 28.4 °F 18.0 °F 26.6 °F 93% 30.15 in 3.0 mi North 12.7 mph - 0.01 in   Overcast
2:12 PM 28.4 °F 18.0 °F 26.6 °F 93% 30.14 in 3.0 mi North 12.7 mph - 0.01 in   Overcast
2:54 PM 28.0 °F 17.0 °F 26.1 °F 92% 30.24 in 1.8 mi North 13.8 mph - 0.02 in Snow Light Snow
3:07 PM 28.4 °F 17.0 °F 26.6 °F 93% 30.14 in 0.5 mi North 15.0 mph - 0.01 in Fog , Snow Snow
3:18 PM 28.4 °F 17.5 °F 26.6 °F 93% 30.14 in 0.8 mi North 13.8 mph 24.2 mph 0.03 in Snow Light Snow
3:20 PM 28.4 °F 18.0 °F 26.6 °F 93% 30.14 in 1.2 mi North 12.7 mph 21.9 mph 0.03 in Snow Light Snow
3:34 PM 28.4 °F 17.5 °F 26.6 °F 93% 30.17 in 2.5 mi North 13.8 mph - 0.05 in Snow Light Snow
3:54 PM 28.0 °F 16.5 °F 25.0 °F 88% 30.25 in 0.8 mi North 15.0 mph 21.9 mph 0.05 in Snow Light Snow
4:08 PM 28.4 °F 18.5 °F 26.6 °F 93% 30.20 in 0.2 mi North 11.5 mph - 0.02 in Fog , Snow Snow
4:22 PM 28.4 °F 19.1 °F 26.6 °F 93% 30.19 in 0.5 mi North 10.4 mph - 0.04 in Fog , Snow Snow
4:49 PM 26.6 °F 15.2 °F 26.6 °F 100% 30.19 in 0.2 mi North 13.8 mph - 0.07 in Fog , Snow Heavy Snow
4:54 PM 27.0 °F 16.7 °F 26.1 °F 96% 30.28 in 0.2 mi North 11.5 mph - 0.08 in Fog , Snow Heavy Snow
5:09 PM 26.6 °F 16.8 °F 26.6 °F 100% 30.21 in 0.8 mi North 10.4 mph - 0.02 in Snow Light Snow
5:28 PM 26.6 °F 16.8 °F 26.6 °F 100% 30.20 in 0.8 mi North 10.4 mph - 0.04 in Snow Light Snow
5:54 PM 27.0 °F 18.0 °F 25.0 °F 92% 30.30 in 0.8 mi North 9.2 mph - 0.07 in Snow Light Snow
6:05 PM 26.6 °F 17.5 °F 24.8 °F 93% 30.22 in 1.2 mi North 9.2 mph - 0.01 in Snow Light Snow
6:51 PM 26.6 °F 15.7 °F 24.8 °F 93% 30.26 in 0.8 mi North 12.7 mph - 0.04 in Snow Light Snow
6:54 PM 27.0 °F 16.7 °F 25.0 °F 92% 30.33 in 0.8 mi North 11.5 mph - 0.05 in Snow Light Snow
7:12 PM 26.6 °F 17.5 °F 24.8 °F 93% 30.28 in 0.5 mi NNE 9.2 mph - 0.02 in Fog , Snow Snow
7:32 PM 26.6 °F 16.8 °F 24.8 °F 93% 30.25 in 0.8 mi NNE 10.4 mph - 0.05 in Snow Light Snow
7:40 PM 26.6 °F 16.2 °F 24.8 °F 93% 30.27 in 1.0 mi North 11.5 mph - 0.05 in Snow Light Snow
7:54 PM 26.1 °F 16.2 °F 25.0 °F 96% 30.35 in 1.2 mi North 10.4 mph - 0.06 in Snow Light Snow
8:10 PM 26.6 °F 15.7 °F 24.8 °F 93% 30.27 in 1.0 mi North 12.7 mph 19.6 mph 0.00 in Snow Light Snow
8:31 PM 26.6 °F 17.5 °F 24.8 °F 93% 30.25 in 3.0 mi North 9.2 mph - 0.01 in Snow Light Snow
8:41 PM 26.6 °F 15.7 °F 24.8 °F 93% 30.28 in 5.0 mi North 12.7 mph - 0.01 in Snow Light Snow
8:54 PM 26.1 °F 16.2 °F 24.1 °F 92% 30.40 in 7.0 mi North 10.4 mph - 0.01 in   Overcast
9:35 PM 26.6 °F 16.8 °F 24.8 °F 93% 30.31 in 2.5 mi North 10.4 mph - 0.00 in Snow Light Snow
9:40 PM 26.6 °F 18.2 °F 24.8 °F 93% 30.31 in 1.8 mi North 8.1 mph - 0.00 in Snow Light Snow
9:54 PM 26.1 °F 18.4 °F 24.1 °F 92% 30.40 in 2.5 mi North 6.9 mph - 0.00 in Snow Light Snow
10:03 PM 26.6 °F 19.1 °F 24.8 °F 93% 30.32 in 3.0 mi North 6.9 mph - 0.00 in Snow Light Snow
10:17 PM 26.6 °F 19.1 °F 24.8 °F 93% 30.31 in 6.0 mi North 6.9 mph - 0.00 in   Overcast
10:54 PM 26.1 °F 18.4 °F 24.1 °F 92% 30.43 in 6.0 mi North 6.9 mph - 0.00 in   Overcast
11:54 PM 26.1 °F 16.8 °F 23.0 °F 88% 30.44 in 9.0 mi North 9.2 mph - 0.00 in   Overcast